MDT,Max TemperatureF,Mean TemperatureF,Min TemperatureF,Max Dew PointF,MeanDew PointF,Min DewpointF,Max Humidity, Mean Humidity, Min Humidity, Max Sea Level PressureIn, Mean Sea Level PressureIn, Min Sea Level PressureIn, Max VisibilityMiles, Mean VisibilityMiles, Min VisibilityMiles, Max Wind SpeedMPH, Mean Wind SpeedMPH, Max Gust SpeedMPH,PrecipitationIn, CloudCover, Events, WindDirDegrees
2012-10-1,80,60,40,37,33,30,76,47,17,30.29,30.04,29.71,10,10,7,29,17,36,0.00,0,,214
2012-10-2,72,53,33,41,36,32,92,60,28,30.03,29.83,29.68,10,10,5,29,15,35,0.12,4,Rain,356
2012-10-3,39,36,33,36,32,30,96,86,76,30.61,30.34,30.02,10,6,0,23,12,29,0.31,8,Rain-Snow,332
2012-10-4,43,37,30,31,29,26,89,71,53,30.56,30.47,30.37,10,10,10,12,6,15,0.00,8,,26
2012-10-5,47,35,22,30,24,19,96,67,37,30.56,30.51,30.37,10,10,9,10,4,17,T,3,,295
2012-10-6,54,40,25,36,27,18,82,58,33,30.50,30.35,30.24,10,10,10,23,13,28,T,4,,220
2012-10-7,68,53,37,32,29,26,82,52,22,30.20,30.04,29.93,10,10,10,25,13,29,0.00,0,,229
2012-10-8,47,42,37,43,38,30,96,77,58,30.18,30.03,29.92,10,8,3,18,7,22,0.38,8,Rain,354
2012-10-9,60,48,36,35,31,25,92,59,25,30.19,30.13,30.02,10,10,10,14,9,22,0.00,3,,209
2012-10-10,63,49,34,39,35,31,76,55,34,30.22,30.05,29.92,10,8,2,21,14,25,0.05,4,Rain,355
2012-10-11,48,39,30,36,31,28,92,77,61,30.32,30.19,29.88,10,7,0,16,7,20,0.01,6,Rain,61
2012-10-12,75,59,42,35,29,21,76,45,14,29.93,29.76,29.62,10,10,10,31,16,39,0.00,0,,216
2012-10-13,66,58,49,43,36,28,71,52,33,30.08,29.91,29.75,10,10,10,30,16,36,0.03,1,Rain,233
2012-10-14,64,55,46,39,38,36,71,54,36,30.11,29.99,29.78,10,10,10,31,17,37,0.00,2,,215
2012-10-15,67,58,48,41,38,33,59,47,34,29.78,29.75,29.66,10,10,10,28,18,35,T,2,,219
2012-10-16,61,50,38,46,36,23,72,51,29,29.82,29.52,29.35,10,9,2,44,22,54,0.17,3,Rain,235
2012-10-17,52,41,29,24,19,15,69,47,24,30.26,30.03,29.81,10,10,10,36,17,43,0.00,0,,261
2012-10-18,62,44,25,30,23,18,75,49,23,30.30,30.17,29.94,10,10,10,25,12,32,0.00,0,,212
2012-10-19,66,59,51,37,32,27,47,40,32,29.89,29.68,29.52,10,10,10,43,23,49,0.00,0,,219
2012-10-20,58,44,30,37,27,15,63,45,27,29.86,29.60,29.45,10,10,10,40,21,48,0.00,0,,233
2012-10-21,50,38,26,21,17,14,68,45,22,29.98,29.93,29.84,10,10,10,16,7,20,0.00,1,,160
2012-10-22,43,34,25,27,23,18,92,71,49,29.96,29.81,29.69,10,5,0,18,9,21,0.22,6,Fog-Snow,305
2012-10-23,28,24,20,23,19,16,84,74,63,30.17,29.96,29.69,10,10,7,17,8,21,0.00,8,,316
2012-10-24,27,23,19,19,17,16,91,83,74,30.41,30.23,30.03,10,9,3,10,4,13,T,8,Snow,357
2012-10-25,26,24,21,19,17,15,84,79,74,30.60,30.44,30.29,10,7,2,12,4,14,0.02,8,Snow,298
2012-10-26,41,29,18,25,22,15,85,72,53,30.58,30.34,30.09,10,10,10,16,7,,0.00,5,,192
2012-10-27,37,31,25,31,26,21,89,82,75,30.19,30.07,29.90,10,4,0,10,5,12,0.05,8,Fog-Snow,78
2012-10-28,59,48,37,39,36,31,76,62,47,29.99,29.85,29.77,10,10,10,30,17,38,0.01,3,,211
2012-10-29,67,56,44,40,38,34,71,54,37,29.97,29.86,29.79,10,10,10,33,15,40,0.00,3,,219
2012-10-30,68,58,48,37,34,32,54,42,29,29.99,29.93,29.87,10,10,10,30,17,37,0.00,1,,217
2012-10-31,51,41,31,37,30,28,92,73,54,30.12,30.04,29.87,10,8,3,16,5,17,0.00,5,,39